Date,TemperatureHighF,TemperatureAvgF,TemperatureLowF,DewpointHighF,DewpointAvgF,DewpointLowF,HumidityHigh,HumidityAvg,HumidityLow,PressureMaxIn,PressureMinIn,WindSpeedMaxMPH,WindSpeedAvgMPH,GustSpeedMaxMPH,PrecipitationSumIn
2013-4-1,58.2,44.3,33.4,43.0,35.4,12.0,96,74,38,29.72,29.45,22,-225,0,0.29
2013-4-2,36.7,32.3,27.1,16.0,13.0,10.0,57,45,36,29.87,29.73,23,-193,0,0.00
2013-4-3,43.6,34.5,28.0,16.0,12.5,10.0,56,42,26,30.09,29.85,20,-208,0,0.00
2013-4-4,53.2,41.1,28.8,24.0,17.5,13.0,59,40,25,30.24,29.97,16,-153,0,0.00
2013-4-5,57.5,44.5,36.4,29.0,26.5,22.0,73,52,27,29.97,29.59,14,-199,0,0.00
2013-4-6,42.6,35.2,28.2,22.0,10.5,6.0,59,37,24,30.30,29.84,24,-163,0,0.00
2013-4-7,54.5,43.6,30.4,38.0,26.0,8.0,78,52,34,30.29,29.94,17,-101,0,0.00
2013-4-8,62.3,49.8,41.0,41.0,37.8,34.0,92,67,36,30.06,29.89,15,-186,0,0.00
2013-4-9,65.2,52.2,42.8,49.0,42.8,38.0,93,72,47,30.04,29.82,16,-186,0,0.02
2013-4-10,57.0,48.6,43.2,49.0,44.6,40.0,96,86,72,29.97,29.82,6,-310,0,0.52
2013-4-11,49.9,45.6,42.5,46.0,41.5,30.0,96,86,52,30.00,29.80,9,-460,0,0.10
2013-4-13,-200.0,0.0,200.0,-99.9,-99.9,-99.9,0,0,100,0.00,40.00,0,-999,0,0.00
2013-4-14,-200.0,0.0,200.0,-99.9,-99.9,-99.9,0,0,100,0.00,40.00,0,-999,0,0.00
2013-4-15,53.0,20.4,41.5,37.0,-40.8,-99.9,83,29,53,30.35,30.27,9,-563,0,0.00
2013-4-16,64.2,50.9,38.1,51.0,41.6,35.0,91,72,51,30.36,29.98,15,-164,0,0.00
2013-4-17,62.3,55.7,47.2,52.0,36.9,29.0,84,52,32,30.29,29.99,17,-134,0,0.00
2013-4-18,57.6,50.0,39.2,42.0,32.8,28.0,72,53,41,30.40,30.11,14,-136,0,0.00
2013-4-19,73.5,62.0,50.7,62.0,56.0,42.0,97,81,61,30.11,29.58,21,-212,0,0.00
2013-4-20,66.6,51.5,42.1,62.0,39.3,24.0,95,66,39,30.16,29.54,19,-180,0,0.34
2013-4-21,51.6,41.0,32.5,29.0,22.6,19.0,74,50,30,30.64,30.18,15,-142,0,0.00
2013-4-22,48.3,40.1,33.1,33.0,28.8,23.0,82,65,41,30.73,30.57,11,-153,0,0.00
2013-4-23,39.4,37.3,34.4,38.0,34.9,29.0,96,91,79,30.57,30.12,13,-186,0,0.11
2013-4-24,72.6,54.0,39.4,53.0,45.7,38.0,96,76,42,30.10,29.73,14,-270,0,0.00
2013-4-25,61.9,54.1,47.8,51.0,36.1,27.0,92,54,29,30.23,29.76,17,-151,0,0.02
2013-4-26,55.4,48.6,40.9,39.0,32.6,27.0,85,55,42,30.39,30.23,10,-124,0,0.00
2013-4-27,62.4,51.1,40.0,39.0,36.1,33.0,85,59,40,30.38,30.25,7,-175,0,0.00
2013-4-28,66.3,53.7,40.8,42.0,37.7,32.0,84,57,35,30.29,30.18,14,-143,0,0.00
2013-4-29,66.5,56.0,45.7,47.0,38.5,30.0,81,54,37,30.23,30.14,12,-123,0,0.00
2013-4-30,67.8,56.6,46.5,36.0,31.3,26.0,62,40,27,30.33,30.20,9,-144,0,0.00